Terminal Aerodrome Forecast
Issued by NWS Twin Cities, MN

Home | Current Version | Previous Version | Text Only | Print | Product List | Glossary Off
Versions: 1 2 3 4 5 6 7 8 9 10 11 12 13 14 15 16 17 18 19 20 21 22 23

507
FTUS43 KMPX 192210 AAB
TAFEAU
TAF AMD
KEAU 192210Z 1922/2018 14004KT 6SM BR SCT008 OVC060
     FM200000 16004KT 5SM BR OVC006
     FM200200 13003KT 3SM BR OVC007
     FM200400 13003KT 1SM -RA BR OVC005=

USA.gov is the U.S. government's official web portal to all federal, state and local government web resources and services.